Pittsfield, MA

12:52 PM EDT on May 25, 2018 (GMT -0400)
Pittsfield Municipal

Weather History for KPSF - January, 2014

Change the Weather History Date:

Wednesday, January 1, 2014

  Actual Average Record
Temperature  
Mean Temperature 18 °F 22 °F  
Max Temperature 23 °F 30 °F 57 °F (1933)
Min Temperature 13 °F 13 °F -11 °F (1964)
Degree Days  
Heating Degree Days 47 43  
Month to date heating degree days 47 43  
Since 1 July heating degree days 2895 2881  
Cooling Degree Days 0 0  
Month to date cooling degree days 0 0  
Year to date cooling degree days 0 0  
Moisture  
Dew Point 6 °F    
Average Humidity 62    
Maximum Humidity 73    
Minimum Humidity 51    
Precipitation  
Precipitation T in 0.12 in 1.03 in (1945)
Month to date precipitation T 0.12  
Year to date precipitation T 0.12  
Sea Level Pressure  
Sea Level Pressure 30.30 in    
Wind  
Wind Speed 9 mph (West)    
Max Wind Speed 25 mph    
Max Gust Speed 31 mph    
Visibility 9 miles    
Events Snow    
T = Trace of Precipitation, MM = Missing Value Source: NWS Daily Summary

Daily Weather History Graph

Daily Weather History Graph

Search for Another Location

Airport or City:

Astronomy

Jan. 01, 2014 Rise Set
Actual Time 7:22 AM EST 4:31 PM EST
Civil Twilight 6:50 AM EST 5:02 PM EST
Nautical Twilight 6:15 AM EST 5:38 PM EST
Astronomical Twilight 5:41 AM EST 6:12 PM EST
Moon 7:09 AM EST (1/1) 5:14 PM EST (1/1)
Length of Visible Light 10h 12m
Length of Day
9h 08m
New Moon, 0% of the Moon is Illuminated
Jan 1
New Moon
Jan 7
First Quarter
Jan 15
Full
Jan 24
Last Quarter
Jan 30
New

Hourly Weather History & Observations

Time (EST) Temp. Windchill Dew Point Humidity Pressure Visibility Wind Dir Wind Speed Gust Speed Precip Events Conditions
12:54 AM 15.1 °F -0.1 °F 3.0 °F 59% 30.18 in 10.0 mi West 15.0 mph - N/A   Clear
1:54 AM 15.1 °F -2.5 °F 3.0 °F 59% 30.22 in 10.0 mi West 20.7 mph 27.6 mph N/A   Partly Cloudy
2:54 AM 15.1 °F -1.1 °F 3.9 °F 61% 30.22 in 10.0 mi West 17.3 mph 26.5 mph N/A   Partly Cloudy
3:54 AM 15.1 °F -0.6 °F 3.9 °F 61% 30.23 in 10.0 mi West 16.1 mph 25.3 mph N/A   Clear
4:54 AM 14.0 °F -0.2 °F 3.9 °F 64% 30.25 in 10.0 mi West 12.7 mph - N/A   Clear
5:54 AM 14.0 °F 1.2 °F 3.9 °F 64% 30.27 in 10.0 mi West 10.4 mph - N/A   Mostly Cloudy
6:54 AM 12.9 °F 1.6 °F 3.9 °F 67% 30.28 in 10.0 mi WSW 8.1 mph - N/A   Clear
7:54 AM 14.0 °F 2.9 °F 3.9 °F 64% 30.30 in 10.0 mi WSW 8.1 mph - N/A   Mostly Cloudy
8:01 AM 14.0 °F 2.9 °F 3.2 °F 62% 30.23 in 10.0 mi WSW 8.1 mph - N/A   Mostly Cloudy
8:35 AM 15.8 °F 3.4 °F 5.0 °F 62% 30.25 in 10.0 mi WSW 10.4 mph - N/A   Scattered Clouds
8:54 AM 17.1 °F 3.6 °F 5.0 °F 59% 30.32 in 10.0 mi WSW 12.7 mph - N/A   Partly Cloudy
9:54 AM 18.0 °F 4.8 °F 6.1 °F 60% 30.34 in 10.0 mi WSW 12.7 mph - N/A   Overcast
10:54 AM 19.0 °F 5.6 °F 5.0 °F 54% 30.33 in 10.0 mi West 13.8 mph 20.7 mph N/A   Mostly Cloudy
11:54 AM 19.9 °F 8.6 °F 6.1 °F 55% 30.32 in 10.0 mi West 10.4 mph 20.7 mph N/A   Overcast
12:54 PM 19.9 °F 9.3 °F 6.1 °F 55% 30.31 in 10.0 mi WNW 9.2 mph 18.4 mph N/A   Mostly Cloudy
1:54 PM 21.9 °F 9.8 °F 6.1 °F 51% 30.31 in 10.0 mi West 12.7 mph 19.6 mph N/A   Overcast
2:54 PM 21.0 °F 9.9 °F 7.0 °F 55% 30.32 in 10.0 mi NW 10.4 mph - N/A   Overcast
3:54 PM 19.9 °F 12.1 °F 7.0 °F 57% 30.33 in 10.0 mi Variable 5.8 mph - N/A   Overcast
4:54 PM 18.0 °F - 7.0 °F 62% 30.33 in 10.0 mi Calm Calm - N/A   Overcast
5:54 PM 18.0 °F 12.7 °F 8.1 °F 65% 30.34 in 10.0 mi NW 3.5 mph - N/A   Overcast
6:54 PM 16.0 °F - 8.1 °F 71% 30.34 in 10.0 mi Calm Calm - N/A   Overcast
7:54 PM 17.1 °F 8.7 °F 8.1 °F 68% 30.35 in 10.0 mi WNW 5.8 mph - N/A   Overcast
8:54 PM 17.1 °F 11.7 °F 8.1 °F 68% 30.34 in 10.0 mi West 3.5 mph - N/A   Overcast
9:54 PM 16.0 °F - 9.0 °F 74% 30.34 in 3.0 mi Calm Calm - 0.00 in Snow Light Snow
10:54 PM 16.0 °F - 10.0 °F 77% 30.33 in 6.0 mi Calm Calm - 0.00 in   Haze
11:54 PM 16.0 °F 7.4 °F 10.0 °F 77% 30.30 in 3.0 mi NNE 5.8 mph - 0.00 in Snow Light Snow